Location: New Plymouth
(39.0670°S, 174.0830°E)
Time: 01:55:49
(UTC+13:00)

Cosmos 2315 Rocket - Pass Details

Date: 24 January 2019
Orbit: 965 x 1003 km, 82.9° (Epoch: 13 October)

Event Time Altitude Azimuth Distance (km) Brightness Sun altitude
Rises 21:57:07 0° 187° (S) 3,745 7.8 -12.5°
Reaches altitude 10° 21:59:40 10° 186° (S) 2,785 7.0 -12.9°
Maximum altitude 22:06:06 86° 96° (E) 1,000 4.0 -13.9°
Enters shadow 22:12:21 10° 7° (N) 2,719 5.9 -14.8°
